DELTA 1 R/B(1), 10793

Orbit data source: Space-Track

DELTA 1 R/B(1), 10793 is space debris in LEO originally from a launch on Fri, 07 Apr 1978 UTC launched from the Air Force Eastern Test Range (AFETR). Debris objects in space refer to the collection of defunct objects orbiting the Earth. Examples of debris include non-operational satellites, rocket bodies, and fragments generated from explosions, collisions, or faulty payload assembly.

Loading next visibility...
Identifier
10793, 1978-039B
Orbit
LEO
Country
Flag of USUS
Related business
Manufacturer
MDAC-HB
Mission
Spacecraft
Bus & Motor
DELTA/TR-201, Unknown motor
Mass
845 kg wet, 845 kg dry
Launch date (UTC)
1978-04-07 (47 years ago)
Launch vehicle
Unknown
Launch site
Air Force Eastern Test Range (AFETR)
Object type
Payload
Rocket body
Debris
Shape & HBR
Cyl + 1 Nozzle, 3.2 m
Radar Cross Section
7.796 m², Large (>1 m²)

Expand to show TLE details & history
Last TLE update: 18 hours ago

TLE from 18 hours ago
0 DELTA 1 R/B(1)
1 10793U 78039B   25261.03857260  .00000794  00000-0  28633-3 0  9999
2 10793  28.2329 262.8276 0875035 287.3586  63.3170 13.07329160258151
Epoch: 2025-09-18T00:55Z
TLE epoch observation values (Epoch: 2025-09-18T00:55:32.672Z)
Latitude
-0.00001°
Longitude
-108.26446°
Altitude
982.081 km
Speed
7.482 km/s
True Right ascension
17h 31m 18s
True Declination
0° 00' 00"
Sunlit
Object was in daylight at epoch
Visualization orbit readout
Latitude
Unknown
Longitude
Unknown
Altitude
Unknown
Speed
Unknown
Apparent Right ascension
Unknown
Apparent Declination
Unknown
Sunlit
N/A
Visualization observer readout
Local Sidereal Time
11:35:04
Azimuth
Unknown
Elevation
Unknown
Doppler factor
Unknown
Orbital elements
Apogee altitude
1,903.789 km
Perigee altitude
571.016 km
Semi-major axis
7,615.54 km
Eccentricity
0.0875
Inclination
28.2329°
RAAN
262.8276°
Arg. of periapsis
287.3586°
True anomaly
72.69578°
Mean anomaly
63.317°
Eccentric anomaly
67.96434°
Mean motion
3.26582 °/min
Orbital period
110.23 mins
BSTAR
0.00028633
Loading maneuver chart data...
Computing Atmospheric mass density...
Loading historical data...
Loading historical data...
Loading historical data...
Loading historical data...
Loading historical data...
Loading historical data...
Loading historical data...
Other satellites on launch #39 in the year 1978 (1978-04-07 UTC)

Documentation

Showing up to 5 results
|